Location: Churchill Northern Studies Centre
(58.7378°N, 93.8201°W)
Time: 07:23:56
(UTC-05:00)

ISS - Pass Details

Date: 13 October 2017
Orbit: 401 x 408 km, 51.6° (Epoch: 22 October)

Event Time Altitude Azimuth Distance (km) Brightness Sun altitude
Rises 19:14:04 0° 264° (W) 2,326 2.5 -8.6°
Reaches altitude 10° 19:17:32 10° 225° (SW) 1,464 -0.3 -9.0°
Maximum altitude 19:18:22 11° 210° (SSW) 1,419 -0.6 -9.2°
Drops below altitude 10° 19:19:13 10° 195° (SSW) 1,464 -0.8 -9.3°
Sets 19:22:41 0° 156° (SSE) 2,322 -0.2 -9.7°
